星链-6218 (STARLINK-6218 )

导读

STARLINK-6218是美国SpaceX星链(Starlink)项目中的一颗卫星,于2023年7月16日发射升空,属于星链低轨互联网星座的组成部分。该卫星旨在为全球范围内提供高速互联网接入服务,尤其覆盖偏远、网络基础设施薄弱区域,进一步扩充了星链星座的服务覆盖容量与能力。

Basic Information
目录编号:
57368
目录名称:
STARLINK-6218
国际标识:
2023-099AS
轨道中心:
EARTH
卫星名称:
星链-6218
卫星全名:
星链-6218 (STARLINK-6218 )
卫星状态:
在轨 (已飞行1154 天)
发射日期:
2023-07-16 UTC
国别 :
美国 (US)
星等 :
--
This satellite is enrolled in the Space Conjunction Data Service (SCDS) and the current flight risk assessment level is: No High Risk
Orbit Information
数据来源 国际轨道数据 AOE轨道数据
星历时间 2026-09-12T14:29:42+0800
9小时前
查看轨道信息
2026-09-06T07:00:00+0800
6天前
查看轨道信息
半长轴 6861.202km 6861.188km
偏心率 0.0001218 0.0002133
轨道倾角 43.001° 43.004°
近地点辐角 260.776° 237.731°
升交点赤经 268.035° 303.686°
平近点角 99.295° 288.705°
近地点 482.229km 481.587km
远地点 483.901km 484.515km
周期 94.267分钟 94.267分钟
每日圈数 15.275749 15.275795
Detailed Information
固有亮度:
5
最大亮度:
2.5
卫星平台:
Starlink v1.5
覆盖范围:
全球
运营商:
太空探索技术公司
运营商所在国:
美国
制造商(研发单位):
太空探索技术公司
制造商所在国:
美国
使用方式:
暂无
Satellite Introduction
星链(Starlink)计划是由太空探索技术公司(SpaceX)提出的一个巨型低轨卫星互联网星座项目,计划在2019年至2024年间在太空搭建由约1.2万颗卫星组成的“星链”网络,其中1584颗将部署在地球上空550千米处的近地轨道,并从2020年开始工作。该卫星仍在工作。
2D Orbit Map
3D Orbit Map
Orbit Altitude Analysis Chart
Orbit Inclination Analysis Chart
Orbit Comprehensive Analysis Chart
View Comprehensive Chart
Conjunction Data List
Event ID Objects TCA Miss Dist (km) Collision Risk Probability Collision Risk Index (CRI) Action
CDM_260913-233605-736806-729722
2026-09-13T
23:36:39+0000
1.198 km
极远距离
1.114804E-5 中风险 0.56
CDM_260914-183305-736806-471121
2026-09-14T
18:33:35+0000
2.684 km
极远距离
1.005194E-6 低风险 0.35
Miss Distance Evolution Trend with All Objects
Collision Probability Evolution Trend with All Objects